Regional Weather Roundup
Issued by NWS Upton, NY

Current Version | Previous Version | Graphics & Text | Print | Product List | Glossary Off
Versions: 1 2 3 4 5 6 7 8 9 10 11 12 13 14 15 16 17 18 19 20 21 22 23 24 25 26 27 28 29 30 31 32 33 34 35 36 37 38 39 40 41 42 43 44 45 46 47 48 49 50

000
ASUS41 KOKX 292205
RWROKX

REGIONAL WEATHER ROUNDUP
NATIONAL WEATHER SERVICE NEW YORK NY
600 PM EDT FRI AUG 29 2014

NOTE: "FAIR" INDICATES FEW OR NO CLOUDS BELOW 12,000 FEET WITH NO
SIGNIFICANT WEATHER AND/OR OBSTRUCTIONS TO VISIBILITY.

NYZ071-072-176-178-NJZ106-104-292300-
NEW YORK CITY METRO AREA


CITY           SKY/WX    TMP DP  RH WIND       PRES   REMARKS
CENTRAL PARK   SUNNY     74  52  46 VRB5      30.21R
LAGUARDIA APRT PTSUNNY   74  53  48 S13       30.18R
KENNEDY INTL   MOSUNNY   72  52  49 S10       30.20R
NEWARK/LIBERTY PTSUNNY   76  52  43 SE10      30.17R
BRNX BOT. GARD   N/A     73  54  49 S2        30.18F
TETERBORO      SUNNY     76  52  43 S7        30.16R
$$

NYZ177-179-078>081-292300-
LONG ISLAND NEW YORK

CITY           SKY/WX    TMP DP  RH WIND       PRES   REMARKS
FARMINGDALE    SUNNY     70  55  59 S13       30.20R
ISLIP          MOSUNNY   71  54  54 SE8       30.18S
SHIRLEY        SUNNY     71  53  52 S6        30.21R
WESTHAMPTON    SUNNY     71  52  50 S7        30.21S
MONTAUK POINT    N/A     70  55  59 VRB3      30.22S
$$

NYZ052-065-067-292300-
HUDSON VALLEY

CITY           SKY/WX    TMP DP  RH WIND       PRES   REMARKS
WHITE PLAINS   MOSUNNY   73  51  46 SE10G21   30.18S
NEWBURGH       MOSUNNY   75  54  46 VRB5      30.19R
MONTGOMERY     SUNNY     75  52  44 E8        30.17R
POUGHKEEPSIE   SUNNY     76  53  44 VRB3      30.16S
ALBANY         MOSUNNY   77  54  44 CALM      30.17S
$$

NJZ001-105-106-008-010-013-015-019>022-104-292300-
NEW JERSEY

CITY           SKY/WX    TMP DP  RH WIND       PRES   REMARKS
NEWARK/LIBERTY PTSUNNY   76  52  43 SE10      30.17R
TETERBORO      SUNNY     76  52  43 S7        30.16R
CALDWELL       SUNNY     76  51  41 SE10      30.17R
MORRISTOWN     MOSUNNY   77  52  41 S6        30.17R
SOMERVILLE     MOSUNNY   79  51  37 CALM      30.15R
LINDEN         FAIR      80  53  38 SE10      30.19R
SUSSEX         LGT RAIN  77  54  44 CALM      30.17S
ANDOVER          N/A     75  56  51 CALM      30.17S
TRENTON        PTSUNNY   74  52  46 S7        30.17R
MILLVILLE      PTSUNNY   74  59  59 SE7       30.18R
ATLANTIC CITY  PTSUNNY   72  59  63 E10G23    30.19R
WRIGHTSTOWN    PTSUNNY   71  58  61 SE8       30.17R
TOMS RIVER     MOSUNNY   72  57  60 CALM      30.20S
BELMAR         MOSUNNY   72  52  49 SE7       30.20R
$$

PAZ047>061-062-071-292300-
EASTERN PENNSYLVANIA

CITY           SKY/WX    TMP DP  RH WIND       PRES   REMARKS
PHILADELPHIA   PTSUNNY   78  51  38 S6        30.17R
ALLENTOWN      MOSUNNY   78  51  38 E7        30.17S
SCRANTON       MOSUNNY   75  49  39 CALM      30.17S
$$

CTZ002-004>006-009-010-012-RIZ004-006-007-MAZ004-011-015-292300-
SOUTHERN NEW ENGLAND
 IN CT

CITY           SKY/WX    TMP DP  RH WIND       PRES   REMARKS
BRADLEY INTL   MOSUNNY   75  51  43 CALM      30.17R
HARTFORD       SUNNY     76  52  43 SE6       30.17R
DANBURY        SUNNY     73  53  49 S8        30.19R
WTRBRY/OXFORD  SUNNY     72  54  53 S9        30.21R
BRIDGEPORT     SUNNY     74  54  49 SE7       30.19R
MERIDEN        SUNNY     74  53  48 S10       30.18S
NEW HAVEN      MOSUNNY   75  53  46 SE9       30.19S
CHESTER        FAIR      72  54  53 S5        30.21R
GROTON         SUNNY     69  56  62 SE10      30.20R
WILLIMANTIC    SUNNY     73  56  54 SE7       30.19R

 IN RI

CITY           SKY/WX    TMP DP  RH WIND       PRES   REMARKS
PROVIDENCE     MOSUNNY   71  56  58 S9        30.20R
BLOCK ISLAND   MOSUNNY   68  55  64 S9        30.22S
WESTERLY       SUNNY     71  55  56 S6        30.22R

 IN MA

CITY           SKY/WX    TMP DP  RH WIND       PRES   REMARKS
BOSTON         MOSUNNY   66  54  65 SE10      30.22R
WORCESTER      PTSUNNY   70  51  51 S6        30.22R
WESTFIELD      SUNNY     75  52  44 VRB5      30.18R
PROVINCETOWN   SUNNY     64  54  68 E9        30.22S
NANTUCKET      SUNNY     66  53  63 NE10      30.21R
$$

ANZ330-335-338-340-345-350-353-355-292300-
COASTAL MARINE OBSERVATIONS


STATION/POSITION TIME  SKY/WX   TEMP    WIND        PRES    VSBY  WAVE
                                AIR SEA DIR/SP/G                  HT/PER
                 (UTC)          (F)     (DEG/KT/KT) (MB)    (MI)  (FT/S)
NY HARB ENTRANCE NOT AVBL
4S FIRE IS       NOT AVBL
23SW MTP         2200                                 N/A           3/10
HUDSON CANYON    2200            70 72   60/  6/  6 1022.5          4/ 9
EXECUTION ROCKS  2200            75 74  160/ 10/ 16   N/A
WESTERN LI SOUND 2200            75     120/  8/ 10   N/A           1
CENTRAL LI SOUND 2100            72 73  160/  6/  8   N/A           0
EASTERN LI SOUND 2100            71 69  170/  8/ 10   N/A
ROBBINS REEF     2200            71     170/ 15/ 16   N/A
$$


>>>>>>>>>>>>>>>>>>>>>>>>>>>> KEY <<<<<<<<<<<<<<<<<<<<<<<<<<<
>                                                          <
>     SKY/WX - SKY CONDITION/PRESENT WEATHER               <
>     TMP    - TEMPERATURE IN FAHRENHEIT                   <
>     DP     - DEWPOINT IN FAHRENHEIT                      <
>     RH     - RELATIVE HUMIDITY IN PERCENT                <
>     WIND   - DIRECTION AND SPEED IN MPH                  <
>     PRES   - MEAN SEA LEVEL PRESSURE IN INCHES OF HG     <
>     WCI    - WIND CHILL INDEX                            <
>     VSB    - VISIBILITY IN MILES                         <
>     HX     - HEAT INDEX                                  <
>     TC     - TEMPERATURE IN CELSIUS                      <
>     VRB    - VARIABLE WIND DIRECTION                     <
>                                                          <
>>>>>>>>>>>>>>>>>>>>>>>>>>>> KEY <<<<<<<<<<<<<<<<<<<<<<<<<<<





USA.gov is the U.S. government's official web portal to all federal, state and local government web resources and services.